Regional Weather Roundup
Issued by NWS Upton, NY

Current Version | Previous Version | Text Only | Print | Product List | Glossary On
Versions: 1 2 3 4 5 6 7 8 9 10 11 12 13 14 15 16 17 18 19 20 21 22 23 24 25 26 27 28 29 30 31 32 33 34 35 36 37 38 39 40 41 42 43 44 45 46 47 48 49 50
559 ASUS41 KOKX 191108 RWROKX REGIONAL WEATHER ROUNDUP NATIONAL WEATHER SERVICE NEW YORK NY 600 AM EST SUN FEB 19 2017 NOTE: "FAIR" INDICATES FEW OR NO CLOUDS BELOW 12,000 FEET WITH NO SIGNIFICANT WEATHER AND/OR OBSTRUCTIONS TO VISIBILITY. NYZ071-072-176-178-NJZ106-104-191200- NEW YORK CITY METRO AREA CITY SKY/WX TMP DP RH WIND PRES REMARKS Central Park PTCLDY 55 33 43 VRB3 29.76R Wall St Helipt NOT AVBL LaGuardia APRT MOCLDY 57 34 41 W13 29.73R Kennedy INTL MOCLDY 49 36 61 SW10 29.75R Breezy Point N/A 48 N/A N/A W8 N/A Newark/Liberty MOCLDY 47 33 58 SW3 29.74R Teterboro PTCLDY 42 33 70 CALM 29.73R $$ NYZ177-179-078>081-191200- LONG ISLAND NEW YORK CITY SKY/WX TMP DP RH WIND PRES REMARKS Jones Beach N/A 50 N/A N/A SW7 N/A Matinecock PT NOT AVBL Farmingdale PTCLDY 38 30 73 CALM 29.73R MacArthur/ISP MOCLDY 42 34 73 CALM 29.72R Shirley MOCLDY 46 34 62 NW5 29.72S Westhampton MOCLDY 34 30 85 N3 29.73R Southampton NOT AVBL Bridgehampton NOT AVBL East Hampton CLOUDY 37 33 84 W3 29.72R Montauk N/A 45 36 70 W5 29.73R $$ NYZ052-065-067-191200- HUDSON VALLEY CITY SKY/WX TMP DP RH WIND PRES REMARKS White Plains PTCLDY 46 32 58 W9 29.72R Newburgh PTCLDY 45 36 70 W17 29.74R Montgomery CLEAR 31 26 82 CALM 29.73R Poughkeepsie CLEAR 30 27 88 CALM 29.72R Albany MOCLDY 36 31 82 VRB3 29.72R $$ NJZ001-105-106-008-010-013-015-019>022-104-191200- NEW JERSEY CITY SKY/WX TMP DP RH WIND PRES REMARKS Newark/Liberty MOCLDY 47 33 58 SW3 29.74R Teterboro PTCLDY 42 33 70 CALM 29.73R Caldwell CLEAR 41 32 70 CALM 29.75R Somerville CLEAR 36 30 79 CALM 29.74R Linden NOT AVBL Sussex CLOUDY 31 29 92 CALM 29.75R Andover N/A 32 30 92 CALM 29.76R Trenton CLOUDY 57 33 40 W7 29.77R Millville CLOUDY 56 36 47 SW5 29.79R Atlantic City CLOUDY 57 33 40 SW5 29.78R Wrightstown CLOUDY 56 34 42 W6 29.74R Toms River CLOUDY 55 35 47 W6 29.76S Belmar PTCLDY 57 34 41 W7 29.76R $$ PAZ047>061-062-071-191200- EASTERN PENNSYLVANIA CITY SKY/WX TMP DP RH WIND PRES REMARKS Philadelphia CLOUDY 58 33 39 W9 29.79R Allentown PTCLDY 46 32 58 SW8 29.77R Scranton CLEAR 48 34 58 SW3 29.77R $$ CTZ002-004>006-009-010-012-RIZ004-006-007-MAZ004-011-015-191200- SOUTHERN NEW ENGLAND IN CT CITY SKY/WX TMP DP RH WIND PRES REMARKS Bradley INTL MOCLDY 36 31 82 CALM 29.70R Hartford CLOUDY 30 28 92 CALM 29.71R Danbury CLOUDY 32 28 85 CALM 29.73R Wtrbury/Oxford CLOUDY 43 28 56 CALM 29.73R Bridgeport MOCLDY 43 33 68 CALM 29.72R Meriden CLOUDY 29 25 85 CALM 29.72R FOG New Haven CLOUDY 35 28 75 CALM 29.72R Chester N/A 48 32 53 CALM 29.71R Groton PTCLDY 31 29 92 CALM 29.71R Wilimantic CLOUDY 29 26 89 CALM 29.72R IN RI CITY SKY/WX TMP DP RH WIND PRES REMARKS Providence PTCLDY 45 32 60 W10 29.69R Block Island PTCLDY 45 36 70 W13 29.72R Westerly PTCLDY 35 29 78 CALM 29.72R IN MA CITY SKY/WX TMP DP RH WIND PRES REMARKS Boston CLOUDY 41 33 73 SW10 29.66R Worcester CLOUDY 42 32 67 SW3 29.66R Westfield PTCLDY 26 25 96 CALM 29.68R Provincetown CLOUDY 44 36 73 W13 29.66R Nantucket CLEAR 44 36 73 W20 29.67R $$ ANZ330-335-338-340-345-350-353-355-191200- COASTAL MARINE OBSERVATIONS STATION/POSITION TIME SKY/WX TEMP WIND PRES VSBY WAVE AIR SEA DIR/SP/G HT/PER (UTC) (F) (DEG/KT/KT) (MB) (MI) (FT/S) NY HARB ENTRANCE 0950 49 42 290/ 6/ 8 1005.7 2/ 6 20 S FIRE ISLAND 1050 46 40 260/ 12/ 12 1007.0 3/ 5 GREAT SOUTH BAY NOT AVBL 23 SSW MONTAUK P 0950 48 44 1006.2 4/ 6 15 E BARNEGAT LI 1030 42 N/A 2/ 5 HUDSON CANYON 0950 51 1007.3 4/ 6 KINGS POINT 1036 51 37 1006.4 EXECUTION ROCKS NOT AVBL CENTRAL LI SOUND 1030 43 260/ 10/ 12 N/A 1/ 3 EASTERN LI SOUND NOT AVBL ROBBINS REEF 1036 53 290/ 9/ 10 1007.1 $$ >>>>>>>>>>>>>>>>>>>>>>>>>>>> KEY <<<<<<<<<<<<<<<<<<<<<<<<<<< > < > SKY/WX - Sky Condition/Present Weather < > TMP - Temperature in Fahrenheit < > DP - Dew Point in Fahrenheit < > RH - Relative Humidity in Percent < > WIND - Direction (from) and Speed in MPH < > PRES - Mean Sea Level Pressure (inches of Hg) < > WCI - Wind Chill Index < > VSB - VISIBILITY IN MILES < > HX - HEAT INDEX < > TC - TEMPERATURE IN CELSIUS < > VRB - VARIABLE WIND DIRECTION < > < >>>>>>>>>>>>>>>>>>>>>>>>>>>> KEY <<<<<<<<<<<<<<<<<<<<<<<<<<<

USA.gov is the U.S. government's official web portal to all federal, state and local government web resources and services.